KD4WXI Weather Reports


time (UTC)temp
C
wind
direction
speed
KPH
gust
KPH
rain 1hr
cm
rain 24hr
cm
rain mn
cm
humidity
%
barometer
mb
20260504211403 24 292 3.2 3.2 0.00 0.00 0.00 33 1013.8
20260504210900 24 268 1.6 1.6 0.00 0.00 0.00 34 1013.9
20260504210357 23 348 0.0 0.0 0.00 0.00 0.00 35 1013.9
20260504205854 23 256 1.6 1.6 0.00 0.00 0.00 35 1013.7
20260504205352 23 240 1.6 1.6 0.00 0.00 0.00 35 1013.9
20260504204850 23 313 0.0 1.6 0.00 0.00 0.00 36 1014.1
20260504204348 24 310 1.6 1.6 0.00 0.00 0.00 34 1014.2
20260504203848 24 257 1.6 1.6 0.00 0.00 0.00 35 1014.0
20260504203344 24 285 0.0 1.6 0.00 0.00 0.00 34 1014.3
20260504202840 25 205 3.2 4.8 0.00 0.00 0.00 34 1014.5
20260504202337 25 223 1.6 1.6 0.00 0.00 0.00 33 1014.5
20260504201833 25 263 1.6 3.2 0.00 0.00 0.00 34 1014.6
20260504201331 26 264 1.6 1.6 0.00 0.00 0.00 34 1014.7
20260504200828 26 264 1.6 1.6 0.00 0.00 0.00 33 1014.5
20260504200325 25 283 1.6 1.6 0.00 0.00 0.00 32 1014.7
20260504195821 25 218 3.2 3.2 0.00 0.00 0.00 34 1014.8
20260504195317 25 215 3.2 3.2 0.00 0.00 0.00 33 1015.0
20260504194814 26 275 3.2 3.2 0.00 0.00 0.00 33 1014.9
20260504194310 26 262 3.2 3.2 0.00 0.00 0.00 33 1014.9
20260504193806 26 150 0.0 0.0 0.00 0.00 0.00 33 1015.1
20260504193304 25 278 1.6 1.6 0.00 0.00 0.00 34 1015.2
20260504192802 26 251 4.8 4.8 0.00 0.00 0.00 35 1015.1
20260504192300 26 254 1.6 1.6 0.00 0.00 0.00 32 1015.2
20260504191758 26 309 1.6 1.6 0.00 0.00 0.00 31 1015.3
20260504191255 25 187 3.2 4.8 0.00 0.00 0.00 35 1015.4
20260504190750 26 247 3.2 8.0 0.00 0.00 0.00 34 1015.5
20260504190247 26 243 0.0 1.6 0.00 0.00 0.00 32 1015.4
20260504185743 26 248 3.2 4.8 0.00 0.00 0.00 32 1015.7
20260504185241 26 252 1.6 3.2 0.00 0.00 0.00 35 1015.4
20260504184737 25 267 1.6 3.2 0.00 0.00 0.00 35 1015.4
20260504184233 26 323 1.6 3.2 0.00 0.00 0.00 35 1015.5
20260504183728 25 51 0.0 0.0 0.00 0.00 0.00 37 1015.7
20260504183226 25 258 3.2 3.2 0.00 0.00 0.00 37 1015.9
20260504182724 25 237 0.0 1.6 0.00 0.00 0.00 34 1015.9
20260504182221 25 309 0.0 0.0 0.00 0.00 0.00 37 1015.8
20260504181718 25 282 0.0 1.6 0.00 0.00 0.00 35 1015.8
20260504181216 25 15 1.6 1.6 0.00 0.00 0.00 37 1016.0
20260504180715 25 256 3.2 3.2 0.00 0.00 0.00 37 1016.0
20260504180213 25 267 3.2 3.2 0.00 0.00 0.00 36 1015.8
20260504175710 25 199 1.6 3.2 0.00 0.00 0.00 35 1015.8
20260504175206 25 78 1.6 1.6 0.00 0.00 0.00 37 1016.0
20260504174704 25 213 4.8 4.8 0.00 0.00 0.00 37 1015.8
20260504174202 24 316 0.0 1.6 0.00 0.00 0.00 36 1016.0
20260504173658 25 55 3.2 3.2 0.00 0.00 0.00 33 1016.1
20260504173155 25 230 3.2 3.2 0.00 0.00 0.00 36 1016.2
20260504172652 24 18 0.0 1.6 0.00 0.00 0.00 37 1016.2
20260504172148 25 240 3.2 3.2 0.00 0.00 0.00 38 1016.1
20260504171645 25 8 0.0 1.6 0.00 0.00 0.00 35 1016.2
20260504171142 25 254 1.6 1.6 0.00 0.00 0.00 38 1016.4
20260504170638 24 304 0.0 1.6 0.00 0.00 0.00 34 1016.5
20260504170136 24 302 0.0 1.6 0.00 0.00 0.00 37 1016.6
20260504151027 21 352 1.6 1.6 0.00 0.00 0.00 45 1018.0
20260504150525 21 292 1.6 1.6 0.00 0.00 0.00 43 1017.9
20260504140951 20 55 0.0 3.2 0.00 0.00 0.00 52 1017.8
20260504140447 18 7 0.0 1.6 0.00 0.00 0.00 54 1018.0
20260504130412 13 333 0.0 0.0 0.00 0.00 0.00 72 1017.8
20260504110259 2 0 0.0 0.0 0.00 0.00 0.00 99 1017.7
20260504100217 2 359 0.0 0.0 0.00 0.00 0.00 99 1017.5
20260504090139 3 359 0.0 0.0 0.00 0.00 0.00 99 1017.5
20260504081610 3 352 0.0 0.0 0.00 0.00 0.00 99 1017.4
20260504081106 3 352 0.0 0.0 0.00 0.00 0.00 99 1017.5
20260504080603 3 352 0.0 0.0 0.00 0.00 0.00 99 1017.4
20260504050415 5 353 0.0 0.0 0.00 0.00 0.00 92 1017.8
20260504045912 6 353 0.0 0.0 0.00 0.00 0.00 92 1017.4
20260504045408 6 353 0.0 0.0 0.00 0.00 0.00 92 1017.5
20260504044904 6 353 0.0 0.0 0.00 0.00 0.00 93 1017.3
20260504044402 5 1 0.0 0.0 0.00 0.00 0.00 93 1017.3
20260504043859 5 1 0.0 0.0 0.00 0.00 0.00 92 1017.2
20260504043356 5 1 0.0 0.0 0.00 0.00 0.00 92 1017.3
20260504042854 6 1 0.0 0.0 0.00 0.00 0.00 92 1017.3
20260504042349 5 1 0.0 0.0 0.00 0.00 0.00 92 1017.2
20260504041846 5 1 0.0 0.0 0.00 0.00 0.00 92 1017.2
20260504041342 5 1 0.0 0.0 0.00 0.00 0.00 91 1017.3
20260504040838 6 1 0.0 0.0 0.00 0.00 0.00 91 1017.3
20260504040336 6 348 0.0 0.0 0.00 0.00 0.00 91 1017.4
20260504035832 6 348 0.0 0.0 0.00 0.00 0.00 90 1017.4
20260504035330 6 348 0.0 0.0 0.00 0.00 0.00 89 1017.5
20260504034827 6 348 0.0 0.0 0.00 0.00 0.00 87 1017.5
20260504034324 6 348 0.0 0.0 0.00 0.00 0.00 87 1017.3
20260504033821 6 348 0.0 0.0 0.00 0.00 0.00 87 1017.5
20260504033319 6 348 0.0 0.0 0.00 0.00 0.00 87 1017.5
20260504032815 6 348 0.0 0.0 0.00 0.00 0.00 87 1017.6
20260504032313 6 348 0.0 0.0 0.00 0.00 0.00 87 1017.6
20260504031809 6 348 0.0 0.0 0.00 0.00 0.00 88 1017.6
20260504031307 6 348 0.0 0.0 0.00 0.00 0.00 87 1017.7
20260504030803 6 348 0.0 0.0 0.00 0.00 0.00 87 1017.5
20260504030300 6 348 0.0 0.0 0.00 0.00 0.00 87 1017.5
20260504025756 6 348 0.0 0.0 0.00 0.00 0.00 87 1017.8
20260504025253 7 348 0.0 0.0 0.00 0.00 0.00 86 1017.4
20260504024750 7 348 0.0 0.0 0.00 0.00 0.00 85 1017.5
20260504024247 7 348 0.0 0.0 0.00 0.00 0.00 84 1017.7
20260504023744 7 348 0.0 0.0 0.00 0.00 0.00 84 1017.4
20260504023240 7 348 0.0 0.0 0.00 0.00 0.00 83 1017.6
20260504022736 7 348 0.0 0.0 0.00 0.00 0.00 82 1017.6
20260504022232 7 348 0.0 0.0 0.00 0.00 0.00 81 1017.4
20260504021729 8 348 0.0 0.0 0.00 0.00 0.00 81 1017.3
20260504021226 8 348 0.0 0.0 0.00 0.00 0.00 78 1017.1
20260504020723 8 348 0.0 0.0 0.00 0.00 0.00 79 1017.1
20260504020220 8 348 0.0 0.0 0.00 0.00 0.00 78 1017.3
20260504015716 8 348 0.0 0.0 0.00 0.00 0.00 78 1016.9
20260504015213 8 348 0.0 0.0 0.00 0.00 0.00 77 1017.0
20260504014708 8 348 0.0 0.0 0.00 0.00 0.00 75 1016.7
20260504014205 8 348 0.0 0.0 0.00 0.00 0.00 75 1016.9
20260504013703 9 348 0.0 0.0 0.00 0.00 0.00 72 1016.8
20260504013200 9 348 0.0 0.0 0.00 0.00 0.00 71 1016.9
20260504012657 10 348 0.0 0.0 0.00 0.00 0.00 71 1016.9
20260504012155 10 348 0.0 0.0 0.00 0.00 0.00 71 1016.7
20260504011652 10 348 0.0 0.0 0.00 0.00 0.00 71 1016.8
20260504011148 10 348 0.0 0.0 0.00 0.00 0.00 67 1016.6
20260504010644 10 348 0.0 0.0 0.00 0.00 0.00 66 1016.4
20260504010140 11 347 0.0 0.0 0.00 0.00 0.00 64 1016.3
20260504005637 11 347 0.0 0.0 0.00 0.00 0.00 63 1016.5
20260504005133 11 358 0.0 0.0 0.00 0.00 0.00 61 1016.4
20260504004632 11 358 0.0 0.0 0.00 0.00 0.00 59 1016.4
20260504004129 12 358 0.0 0.0 0.00 0.00 0.00 58 1016.5
20260504003625 12 358 0.0 0.0 0.00 0.00 0.00 57 1016.3
20260504003121 12 358 0.0 0.0 0.00 0.00 0.00 57 1016.3
20260504002618 12 352 0.0 0.0 0.00 0.00 0.00 60 1016.3
20260504002116 12 352 0.0 0.0 0.00 0.00 0.00 57 1016.1
20260504001614 13 353 0.0 0.0 0.00 0.00 0.00 59 1016.3
20260504001109 13 353 0.0 0.0 0.00 0.00 0.00 52 1016.1
20260504000607 14 351 0.0 0.0 0.00 0.00 0.00 48 1016.1
20260504000104 14 347 0.0 0.0 0.00 0.00 0.00 47 1015.9
20260503235603 15 347 0.0 0.0 0.00 0.00 0.00 46 1015.9
20260503235059 15 345 0.0 0.0 0.00 0.00 0.00 44 1016.0
20260503234557 15 345 0.0 0.0 0.00 0.00 0.00 44 1016.0
20260503234054 15 345 0.0 0.0 0.00 0.00 0.00 44 1016.2
20260503233551 16 345 0.0 0.0 0.00 0.00 0.00 42 1016.2
20260503233047 16 345 0.0 0.0 0.00 0.00 0.00 41 1016.1
20260503232544 16 345 0.0 0.0 0.00 0.00 0.00 41 1015.9
20260503232041 16 338 0.0 0.0 0.00 0.00 0.00 40 1016.2
20260503231539 16 338 0.0 0.0 0.00 0.00 0.00 39 1016.1
20260503231035 16 352 0.0 0.0 0.00 0.00 0.00 39 1016.0
20260503230532 16 352 0.0 0.0 0.00 0.00 0.00 41 1016.0
20260503230030 16 348 0.0 0.0 0.00 0.00 0.00 42 1016.1
20260503225526 16 4 0.0 0.0 0.00 0.00 0.00 40 1015.9
20260503225021 17 348 0.0 0.0 0.00 0.00 0.00 40 1016.1
20260503224519 16 334 0.0 0.0 0.00 0.00 0.00 37 1016.2
20260503224017 16 350 0.0 0.0 0.00 0.00 0.00 37 1016.0
20260503223515 16 10 0.0 1.6 0.00 0.00 0.00 39 1016.1
20260503223010 17 348 0.0 0.0 0.00 0.00 0.00 39 1016.1
20260503222508 17 349 0.0 0.0 0.00 0.00 0.00 39 1016.2
20260503222006 17 339 0.0 0.0 0.00 0.00 0.00 38 1016.2
20260503221504 17 336 0.0 0.0 0.00 0.00 0.00 39 1016.3
20260503221001 17 34 0.0 0.0 0.00 0.00 0.00 37 1016.2
20260503220457 17 15 1.6 3.2 0.00 0.00 0.00 33 1016.4
20260503215954 17 316 0.0 0.0 0.00 0.00 0.00 37 1016.5
20260503215451 17 308 0.0 0.0 0.00 0.00 0.00 37 1016.5
20260503214949 17 330 0.0 0.0 0.00 0.00 0.00 37 1016.4
20260503214447 17 337 0.0 0.0 0.00 0.00 0.00 36 1016.2
20260503213943 17 358 0.0 0.0 0.00 0.00 0.00 38 1016.5
20260503213442 17 348 0.0 0.0 0.00 0.00 0.00 33 1016.6
20260503212937 17 342 0.0 0.0 0.00 0.00 0.00 39 1016.7
20260503212435 18 5 0.0 0.0 0.00 0.00 0.00 34 1016.7
20260503211932 17 1 0.0 0.0 0.00 0.00 0.00 36 1016.7